Flag for Germany Weather past 2 weeks in Lemgo, North Rhine-Westphalia, Germany

Now
59 °F

Overcast.


Feels Like: 59 °F
Forecast: 51 / 65 °F
Wind: 2 mph from Northwest

Location: Bad Lippspringe

Current Time: Sep 1, 2015 at 6:59:29 PM

Latest Report: Sep 1, 2015 at 6:00 PM


Visibility: 15 mi

Pressure: 29.92 "Hg

Humidity: 93%

Dew point: 57 °F

Location of LemgoLocation

Historic Weather in Lemgo — Graph

°F

Lemgo temperature yesterday

Maximum temperature yesterday: 90 °F (at 4:00 PM)
Minimum temperature yesterday: 67 °F (at 3:00 AM)
Average temperature yesterday: 78 °F

Past Weeks' High & Low Weather Summary

 TemperatureHumidityPressure
High90 °F (Aug 31, 4:00 PM)100% (Aug 19, 7:00 AM)30.27 "Hg (Aug 19, 7:00 AM)
Low49 °F (Aug 29, 6:00 AM)27% (Aug 31, 4:00 PM)29.59 "Hg (Aug 24, 6:00 PM)
Average66 °F72%29.99 "Hg
* Reported Aug 17 5:00 PM — Sep 1 5:00 PM, Lemgo, Weather by CustomWeather, © 2015

Note: Actual official high and low records may vary slightly from our data, if they occured in-between our weather recording intervals... More about our weather records

Advertising

Lemgo weather history for previous 24 hours

 ConditionsComfort  
Time TempWeatherWind HumidityBarometerVisibility
5:00 PM
Tue, Sep 1
59 °FDrizzle. Low clouds.3 mph95%29.90 "Hg14 mi
4:00 PM61 °FLight rain. Low clouds.3 mph97%29.88 "Hg4 mi
3:00 PM61 °FLight rain. Low clouds.3 mph95%29.88 "Hg4 mi
2:00 PM61 °FLight rain. Overcast.2 mph95%29.85 "Hg4 mi
1:00 PM61 °FRain. Low clouds.2 mph97%29.83 "Hg2 mi
12:00 PM61 °FRain. Overcast.6 mph94%29.82 "Hg3 mi
11:00 AM64 °FOvercast.3 mph87%29.80 "Hg10 mi
10:00 AM64 °FOvercast.2 mph84%29.80 "Hg13 mi
9:00 AM65 °FOvercast.6 mph78%29.82 "Hg12 mi
8:00 AM65 °FOvercast.5 mph80%29.80 "Hg9 mi
7:00 AM66 °FOvercast.7 mph83%29.80 "Hg5 mi
6:00 AM68 °FOvercast.3 mph82%29.79 "Hg8 mi
5:00 AM68 °FOvercast.2 mph84%29.79 "Hg7 mi
4:00 AM69 °FOvercast.3 mph83%29.79 "Hg6 mi
3:00 AM69 °FOvercast.6 mph81%29.80 "Hg11 mi
2:00 AM69 °FPassing clouds.5 mph84%29.80 "Hg9 mi
1:00 AM69 °FPassing clouds.1 mph84%29.80 "Hg7 mi
11:00 PM
Mon, Aug 31
72 °FPassing clouds.2 mph62%29.78 "Hg17 mi
10:00 PM73 °FClear.2 mph59%29.75 "Hg17 mi
9:00 PM74 °FClear.1 mph63%29.76 "Hg18 mi
8:00 PM82 °FSunny.2 mph43%29.74 "Hg19 mi
7:00 PM87 °FSunny.6 mph33%29.74 "Hg11 mi
6:00 PM89 °FSunny.5 mph37%29.74 "Hg14 mi
Weather by CustomWeather, © 2015

See weather overviewHow to use our weather pages